Weather Roundup
Issued by NWS Springfield, MO

Home | Current Version | Previous Version | Text Only | Print | Product List | Glossary On
Versions: 1 2 3 4 5 6 7 8 9 10 11 12 13 14 15 16 17 18 19 20 21 22 23 24 25 26 27 28 29 30 31 32 33 34 35 36 37 38 39 40 41 42 43 44 45 46 47 48 49 50
000
NZUS99 KSGF 251907
HRRSGF

HOURLY WEATHER
NATIONAL WEATHER SERVICE SPRINGFIELD MO
200 PM CDT TUE JUL 25 2017

......SGF CWA......

CITY           SKY/WX    TMP DP  RH WIND       PRES   REMARKS
SPRINGFIELD    SUNNY     95  70  44 VRB3      30.08F HX 101
JOPLIN         SUNNY     96  72  45 SW5       30.07F HX 104
WEST PLAINS    CLOUDY    86  69  56 SW8       30.10F HX  90
ROLLA          SUNNY     91  65  41 E5        30.10F HX  93
OSAGE BEACH    SUNNY     94  70  45 VRB5      30.08F HX 100
BRANSON        MOSUNNY   93  66  40 W6        30.11F HX  96

......SURROUNDING SGF CWA......

CITY           SKY/WX    TMP DP  RH WIND       PRES   REMARKS
CHANUTE        MOSUNNY   94  71  47 S12       30.06F HX 101
PARSONS        MOSUNNY   93  71  48 MISG      30.07F HX 100
COFFEYVILLE    MOSUNNY   94  72  48 S12       30.05F HX 102
EMPORIA        SUNNY     93  71  48 S13       30.05F HX 100
GROVE OK       MOSUNNY   91  72  52 CALM      30.08F HX  98
ROGERS AR      PTSUNNY   90  71  53 S8        30.12S HX  96
SILOAM SPRINGS MOSUNNY   91  70  49 S9        30.10S HX  97
HARRISON AR    MOSUNNY   91  70  49 VRB3      30.12S HX  96
NEAR YELLVILLE MOSUNNY   93  70  46 S5        30.06S HX  99

......KANSAS AND MISSOURI......

CITY           SKY/WX    TMP DP  RH WIND       PRES   REMARKS
KANSAS CTY INT MOSUNNY   93  72  50 SW10      30.06F HX 101
DOWNTOWN KC    SUNNY     94  75  54 S9        30.04S HX 105
COLUMBIA       SUNNY     89  71  55 VRB6      30.10F HX  95
SEDALIA        SUNNY     91  74  57 VRB5      30.10F HX 100
ST JOSEPH      SUNNY     91  76  61 S12       30.04F HX 103
ST LOUIS       PTSUNNY   89  71  55 E9        30.10S HX  95
SPIRIT OF STL  PTSUNNY   89  70  53 E7        30.07F HX  94
KIRKSVILLE     SUNNY     88  68  51 VRB6      30.11F HX  91
WICHITA        MOSUNNY   98  68  37 S14       30.02S HX 103
TOPEKA         SUNNY     93  73  52 S12       30.04S HX 102
OLATHE         SUNNY     89  74  60 S7        30.07F HX  98

......TENNESSEE......

CITY           SKY/WX    TMP DP  RH WIND       PRES   REMARKS
MEMPHIS        MOSUNNY   94  76  55 W6        30.07F HX 106
NASHVILLE      PTSUNNY   92  68  45 VRB6      30.09F HX  96

......ARKANSAS.......

CITY           SKY/WX    TMP DP  RH WIND       PRES   REMARKS
FAYETTEVILLE   MOSUNNY   90  74  59 VRB3      30.11F HX  99
FT SMITH       MOSUNNY   94  73  50 VRB3      30.06S HX 103
LITTLE ROCK    MOSUNNY   93  75  55 S7        30.06F HX 104

......OKLAHOMA.......

CITY           SKY/WX    TMP DP  RH WIND       PRES   REMARKS
TULSA          MOSUNNY   95  70  44 SE9       30.03S HX 101
PONCA CITY     SUNNY     96  68  39 S12G20    30.02S HX 101
MCALESTER      MOSUNNY   92  75  57 SE9       30.06F HX 103
OKLAHOMA CITY  MOSUNNY   96  67  38 S14G22    30.04F HX 100

......IOWA............

CITY           SKY/WX    TMP DP  RH WIND       PRES   REMARKS
DES MOINES     MOSUNNY   92  68  45 SE14G21   30.04F HX  96
QUAD CITIES    CLOUDY    82  67  60 SE10      30.13F

......ILLINOIS........

CITY           SKY/WX    TMP DP  RH WIND       PRES   REMARKS
QUINCY         MOSUNNY   87  66  49 SE10      30.11F
CHICAGO        MOSUNNY   80  56  43 S8        30.18F




USA.gov is the U.S. government's official web portal to all federal, state and local government web resources and services.